Flag for Romania Weather past 2 weeks in Oradea, Romania

Now
73 °F

Clear.


Feels Like: 77 °F
Forecast: 67 / 82 °F
Wind: 9 mph from Northeast

Location: Oradea Airport

Current Time: Sep 3, 2014 at 7:55:54 AM

Latest Report: Sep 3, 2014 at 7:30 AM


Visibility: 10 mi

Pressure: 29.86 "Hg

Humidity: 47%

Dew point: 52 °F

Location of OradeaLocation

Historic Weather in Oradea — Graph

°F

Oradea temperature yesterday

Maximum temperature yesterday: 84 °F (at 3:30 PM)
Minimum temperature yesterday: 59 °F (at 5:00 AM)
Average temperature yesterday: 73 °F

Past Weeks' High & Low Weather Summary

 TemperatureHumidityPressure
High84 °F (Aug 20, 2:00 PM)100% (Aug 20, 9:30 PM)30.18 "Hg (Aug 20, 9:30 PM)
Low46 °F (Aug 28, 6:30 AM)30% (Sep 2, 2:00 PM)29.77 "Hg (Aug 27, 8:00 AM)
Average67 °F69%29.96 "Hg
* Reported Aug 19 6:00 AM — Sep 3 6:30 AM, Oradea, Weather by CustomWeather, © 2014

Note: Actual official high and low records may vary slightly from our data, if they occured in-between our weather recording intervals... More about our weather records

Advertising

Oradea weather history for previous 24 hours

 ConditionsComfort  
Time TempWeatherWind HumidityBarometerVisibility
6:30 AM
Sep 3
72 °FClear.9 mph53%29.86 "Hg10 mi
6:00 AM72 °FClear.7 mph53%29.86 "Hg10 mi
5:30 AM72 °FPassing clouds.7 mph53%29.86 "HgN/A
5:00 AM72 °FPassing clouds.7 mph50%29.86 "HgN/A
4:00 AM70 °FPassing clouds.5 mph60%29.86 "HgN/A
3:00 AM72 °FPartly cloudy.7 mph53%29.86 "HgN/A
2:00 AM72 °FPassing clouds.7 mph57%29.86 "HgN/A
1:00 AM68 °FPassing clouds.5 mph64%29.86 "HgN/A
12:00 AM70 °FPassing clouds.5 mph57%29.86 "HgN/A
11:00 PM
Sep 2
72 °FPassing clouds.7 mph53%29.86 "HgN/A
10:30 PM72 °FPassing clouds.7 mph53%29.86 "HgN/A
10:00 PM68 °FClear.2 mph64%29.86 "Hg10 mi
9:30 PM73 °FClear.5 mph50%29.86 "Hg10 mi
9:00 PM75 °FSunny.5 mph44%29.86 "Hg10 mi
8:30 PM77 °FSunny.7 mph42%29.83 "Hg10 mi
8:00 PM77 °FSunny.7 mph42%29.83 "Hg10 mi
7:30 PM79 °FSunny.5 mph39%29.80 "Hg10 mi
7:00 PM81 °FSunny.5 mph37%29.80 "Hg10 mi
6:30 PM81 °FSunny.7 mph34%29.80 "Hg10 mi
6:00 PM81 °FPassing clouds.7 mph37%29.80 "HgN/A
5:30 PM82 °FPassing clouds.7 mph37%29.80 "HgN/A
5:00 PM82 °FPassing clouds.7 mph35%29.80 "HgN/A
4:30 PM82 °FPassing clouds.7 mph32%29.80 "HgN/A
4:00 PM84 °FPassing clouds.9 mph31%29.80 "HgN/A
3:30 PM84 °FPassing clouds.5 mph33%29.80 "HgN/A
3:00 PM82 °FSunny.2 mph32%29.80 "Hg10 mi
2:30 PM82 °FPassing clouds.5 mph32%29.80 "HgN/A
2:00 PM82 °FPassing clouds.7 mph30%29.80 "HgN/A
1:30 PM82 °FPassing clouds.7 mph32%29.80 "HgN/A
1:00 PM81 °FPassing clouds.9 mph34%29.80 "HgN/A
12:30 PM81 °FPassing clouds.9 mph34%29.83 "HgN/A
12:00 PM79 °FPassing clouds.12 mph37%29.83 "HgN/A
11:00 AM77 °FPassing clouds.7 mph42%29.83 "HgN/A
10:30 AM73 °FPassing clouds.7 mph53%29.83 "HgN/A
10:00 AM72 °FPassing clouds.5 mph61%29.83 "HgN/A
9:30 AM68 °FPassing clouds.7 mph69%29.83 "HgN/A
9:00 AM66 °FSunny.7 mph73%29.83 "Hg10 mi
8:30 AM64 °FSunny.7 mph73%29.80 "Hg10 mi
8:00 AM63 °FSunny.5 mph77%29.83 "Hg10 mi
7:30 AM61 °FClear.7 mph83%29.80 "Hg10 mi
7:00 AM61 °FClear.7 mph83%29.80 "Hg10 mi
Weather by CustomWeather, © 2014

See weather overviewHow to use our weather pages